Date,TemperatureHighF,TemperatureAvgF,TemperatureLowF,DewpointHighF,DewpointAvgF,DewpointLowF,HumidityHigh,HumidityAvg,HumidityLow,PressureMaxIn,PressureMinIn,WindSpeedMaxMPH,WindSpeedAvgMPH,GustSpeedMaxMPH,PrecipitationSumIn
2013-3-1,38.0,36.3,33.1,29.3,26.9,23.1,73,68,62,29.34,29.19,15,4,15,0.00
2013-3-2,37.6,32.5,30.1,25.4,22.7,18.9,80,67,55,29.33,29.25,22,4,22,0.06
2013-3-3,42.5,32.5,27.4,26.6,20.0,14.9,74,60,46,29.40,29.25,31,5,31,0.13
2013-3-4,43.7,32.4,23.0,20.8,15.6,12.2,68,51,31,29.48,29.39,23,4,23,0.04
2013-3-5,54.7,39.2,25.6,32.0,26.2,15.7,92,61,41,29.50,29.16,9,2,9,0.01
2013-3-6,37.6,34.0,31.3,32.7,31.0,29.8,95,89,76,29.47,29.06,33,8,33,2.63
2013-3-7,41.4,37.6,34.9,30.4,28.5,26.1,77,69,59,29.63,29.47,26,5,29,0.10
2013-3-8,40.0,36.0,29.2,29.4,26.6,23.1,79,69,62,29.75,29.60,31,6,31,12.79
2013-3-9,49.0,34.9,21.8,37.0,27.3,17.7,87,74,60,29.81,29.69,6,1,6,0.00
2013-3-10,59.2,42.3,25.2,41.6,31.1,21.3,88,67,48,29.73,29.61,8,2,8,0.00
2013-3-11,60.8,49.8,38.5,48.3,36.4,26.7,80,61,40,29.63,29.30,9,3,9,0.00
2013-3-12,58.0,50.7,34.2,50.9,43.8,27.5,94,78,53,29.43,29.17,19,5,19,0.86
2013-3-13,49.0,37.6,27.7,39.2,26.6,18.8,88,66,41,29.52,29.34,25,6,25,0.00
2013-3-14,44.5,36.0,27.4,24.9,20.0,15.4,66,53,36,29.59,29.48,24,5,24,0.00
2013-3-15,57.1,41.2,23.2,37.0,27.7,16.6,81,60,41,29.54,29.22,16,4,16,0.00
2013-3-16,59.8,45.2,34.2,54.3,40.8,28.4,92,85,76,29.32,29.06,18,3,18,1.12
2013-3-17,38.5,34.9,31.3,35.6,32.8,29.8,95,92,87,29.66,29.32,21,5,21,0.21
2013-3-18,34.9,33.1,31.3,32.9,31.5,29.8,95,94,91,29.68,29.30,12,2,12,0.28
2013-3-19,53.5,41.9,30.8,47.6,29.6,11.6,95,68,29,29.39,29.18,35,9,35,0.19
2013-3-20,50.9,41.4,31.0,27.3,19.5,13.2,67,42,28,29.44,29.19,24,8,24,0.04
2013-3-21,38.2,31.5,24.1,29.3,17.4,9.9,80,57,41,29.35,29.20,26,6,26,0.01
2013-3-22,46.8,35.4,23.9,25.5,18.8,11.2,66,52,36,29.43,29.29,18,4,18,0.00
2013-3-23,54.4,37.4,21.4,31.9,22.7,15.4,81,58,32,29.47,29.32,15,2,15,0.00
2013-3-24,40.9,33.8,29.2,30.2,25.8,20.3,93,73,53,29.40,29.04,14,2,14,0.00
2013-3-25,41.8,35.2,30.4,39.2,33.0,28.2,93,91,88,29.15,28.95,5,1,5,0.55
2013-3-26,42.5,36.0,27.9,37.3,30.2,25.9,94,80,59,29.47,29.15,20,3,20,0.23
2013-3-27,48.1,38.6,29.3,36.6,28.4,23.9,84,68,50,29.58,29.46,23,5,23,0.00
2013-3-28,48.6,39.7,33.3,33.1,28.1,24.6,74,63,52,29.67,29.55,24,4,24,0.00
2013-3-29,54.7,42.3,29.7,40.3,29.3,23.1,87,62,37,29.70,29.57,22,2,22,0.00
2013-3-30,60.5,43.3,26.3,41.6,30.1,21.3,85,62,38,29.67,29.50,12,2,12,0.00
2013-3-31,58.0,46.4,35.8,50.6,41.3,29.9,90,82,75,29.51,29.18,8,2,8,0.01